RYR729Z LIRP-LEPA

Flight info

Callsign RYR729Z
Flight time 1h 9m
Altitude 37000
Route SPEZI DCT PIDAD DCT TALEP DCT RARQU DCT BALEN UT250 RIXOT
Aircraft A320/M-SDE3FGHIRWY/LB1

Departure

Time 2026-04-20 19:46
Airport Pisa International Airport (LIRP)

Arrival

Time 2026-04-20 20:56
Airport Palma de Mallorca Airport (LEPA)
Time Latitude Longitude Altitude Speed Heading
2026-04-20 19:21 43.69764 10.39915 13 ft 0 kts
2026-04-20 19:21 43.69763 10.39915 13 ft 0 kts
2026-04-20 19:40 43.69753 10.39913 11 ft 3 kts 12°
2026-04-20 19:40 43.69734 10.39906 11 ft 3 kts 21°
2026-04-20 19:40 43.69716 10.39894 11 ft 3 kts 38°
2026-04-20 19:41 43.69703 10.39876 11 ft 3 kts 73°
2026-04-20 19:41 43.69701 10.39862 11 ft 0 kts 99°
2026-04-20 19:43 43.69695 10.39919 11 ft 7 kts 99°
2026-04-20 19:43 43.69688 10.39980 11 ft 6 kts 99°
2026-04-20 19:43 43.69679 10.40031 11 ft 6 kts 117°
2026-04-20 19:44 43.69643 10.40053 12 ft 9 kts 169°
2026-04-20 19:44 43.69584 10.40065 11 ft 8 kts 171°
2026-04-20 19:44 43.69532 10.40076 11 ft 7 kts 171°
2026-04-20 19:44 43.69479 10.40087 11 ft 12 kts 171°
2026-04-20 19:45 43.69378 10.40123 12 ft 16 kts 144°
2026-04-20 19:45 43.69306 10.40248 10 ft 17 kts 126°
2026-04-20 19:45 43.69243 10.40316 9 ft 7 kts 202°
2026-04-20 19:45 43.69149 10.40222 8 ft 45 kts 216°
2026-04-20 19:46 43.68702 10.39756 7 ft 112 kts 217°
2026-04-20 19:46 43.67927 10.38950 42 ft 160 kts 217°
2026-04-20 19:46 43.67078 10.38063 782 ft 147 kts 217°
2026-04-20 19:46 43.66264 10.37226 1348 ft 149 kts 217°
2026-04-20 19:47 43.65384 10.36323 1609 ft 172 kts 217°
2026-04-20 19:47 43.64338 10.35247 1829 ft 201 kts 217°
2026-04-20 19:47 43.63219 10.33964 2339 ft 214 kts 233°
2026-04-20 19:47 43.62771 10.32036 3085 ft 218 kts 275°
2026-04-20 19:48 43.63296 10.30059 3884 ft 223 kts 300°
2026-04-20 19:48 43.64215 10.28323 4743 ft 224 kts 307°
2026-04-20 19:48 43.65220 10.26677 5597 ft 224 kts 307°
2026-04-20 19:48 43.66228 10.25032 6431 ft 224 kts 306°
2026-04-20 19:49 43.67206 10.23328 7096 ft 233 kts 296°
2026-04-20 19:49 43.67713 10.21143 7448 ft 250 kts 274°
2026-04-20 19:49 43.67948 10.18696 8098 ft 262 kts 278°
2026-04-20 19:49 43.68349 10.16225 8934 ft 266 kts 281°
2026-04-20 19:50 43.68795 10.13734 9783 ft 268 kts 278°
2026-04-20 19:50 43.68794 10.11145 10383 ft 279 kts 257°
2026-04-20 19:50 43.67926 10.08641 10643 ft 305 kts 236°
2026-04-20 19:50 43.66601 10.06232 11056 ft 321 kts 234°
2026-04-20 19:51 43.65218 10.03767 11720 ft 328 kts 234°
2026-04-20 19:51 43.63772 10.01291 12397 ft 334 kts 232°
2026-04-20 19:51 43.62260 9.98828 13110 ft 339 kts 232°
2026-04-20 19:51 43.60719 9.96351 13834 ft 342 kts 232°
2026-04-20 19:52 43.59157 9.93865 14545 ft 344 kts 232°
2026-04-20 19:52 43.57572 9.91368 15241 ft 347 kts 232°
2026-04-20 19:52 43.55969 9.88863 15918 ft 350 kts 232°
2026-04-20 19:52 43.54348 9.86350 16568 ft 352 kts 232°
2026-04-20 19:53 43.52708 9.83821 17212 ft 355 kts 232°
2026-04-20 19:53 43.51072 9.81318 17836 ft 357 kts 232°
2026-04-20 19:53 43.49374 9.78744 18462 ft 360 kts 232°
2026-04-20 19:53 43.47703 9.76222 19044 ft 363 kts 232°
2026-04-20 19:54 43.45989 9.73651 19614 ft 366 kts 232°
2026-04-20 19:54 43.44257 9.71061 20177 ft 370 kts 232°
2026-04-20 19:54 43.42507 9.68453 20737 ft 372 kts 232°
2026-04-20 19:54 43.40739 9.65828 21282 ft 375 kts 232°
2026-04-20 19:55 43.38953 9.63187 21813 ft 379 kts 232°
2026-04-20 19:55 43.37152 9.60527 22329 ft 382 kts 232°
2026-04-20 19:55 43.35334 9.57850 22822 ft 385 kts 232°
2026-04-20 19:55 43.33499 9.55153 23294 ft 387 kts 232°
2026-04-20 19:56 43.32276 9.53361 23593 ft 389 kts 232°
2026-04-20 19:56 43.29780 9.49710 24195 ft 393 kts 232°
2026-04-20 19:56 43.27899 9.46963 24630 ft 396 kts 232°
2026-04-20 19:56 43.26006 9.44196 25045 ft 398 kts 232°
2026-04-20 19:57 43.24102 9.41416 25452 ft 401 kts 232°
2026-04-20 19:57 43.22213 9.38662 25838 ft 403 kts 232°
2026-04-20 19:57 43.20283 9.35859 26216 ft 405 kts 232°
2026-04-20 19:57 43.18342 9.33044 26599 ft 407 kts 232°
2026-04-20 19:58 43.16390 9.30219 26954 ft 409 kts 232°
2026-04-20 19:58 43.14426 9.27377 27310 ft 411 kts 232°
2026-04-20 19:58 43.12456 9.24524 27648 ft 413 kts 232°
2026-04-20 19:58 43.10471 9.21650 27981 ft 416 kts 232°
2026-04-20 19:59 43.08490 9.18765 28308 ft 416 kts 233°
2026-04-20 19:59 43.06721 9.15651 28616 ft 415 kts 238°
2026-04-20 19:59 43.05006 9.12463 28910 ft 417 kts 238°
2026-04-20 19:59 43.03292 9.09260 29202 ft 418 kts 238°
2026-04-20 20:00 43.01566 9.06042 29491 ft 420 kts 238°
2026-04-20 20:00 42.99831 9.02818 29764 ft 422 kts 238°
2026-04-20 20:00 42.98085 8.99587 30030 ft 424 kts 238°
2026-04-20 20:00 42.96328 8.96347 30291 ft 425 kts 238°
2026-04-20 20:01 42.94581 8.93134 30532 ft 426 kts 238°
2026-04-20 20:01 42.92806 8.89876 30772 ft 428 kts 238°
2026-04-20 20:01 42.91027 8.86611 31010 ft 429 kts 238°
2026-04-20 20:01 42.89249 8.83346 31280 ft 429 kts 238°
2026-04-20 20:02 42.87470 8.80079 31590 ft 428 kts 238°
2026-04-20 20:02 42.85696 8.76826 31903 ft 427 kts 238°
2026-04-20 20:02 42.83927 8.73590 32221 ft 426 kts 238°
2026-04-20 20:02 42.82157 8.70362 32520 ft 425 kts 238°
2026-04-20 20:03 42.80391 8.67140 32810 ft 424 kts 238°
2026-04-20 20:03 42.78631 8.63928 33112 ft 423 kts 238°
2026-04-20 20:03 42.76877 8.60727 33400 ft 421 kts 238°
2026-04-20 20:03 42.75123 8.57530 33699 ft 421 kts 238°
2026-04-20 20:04 42.73371 8.54344 33986 ft 420 kts 238°
2026-04-20 20:04 42.71621 8.51170 34270 ft 419 kts 238°
2026-04-20 20:04 42.69873 8.47999 34541 ft 418 kts 238°
2026-04-20 20:04 42.68131 8.44838 34799 ft 418 kts 238°
2026-04-20 20:05 42.66387 8.41674 34973 ft 419 kts 238°
2026-04-20 20:05 42.62920 8.35400 34951 ft 418 kts 238°
2026-04-20 20:06 42.59423 8.29093 34952 ft 418 kts 238°
2026-04-20 20:06 42.55921 8.22796 34955 ft 418 kts 237°
2026-04-20 20:07 42.52409 8.16492 34954 ft 419 kts 237°
2026-04-20 20:07 42.48899 8.10199 34957 ft 419 kts 237°
2026-04-20 20:08 42.45382 8.03895 34961 ft 419 kts 237°
2026-04-20 20:08 42.41858 7.97600 34962 ft 419 kts 237°
2026-04-20 20:09 42.38329 7.91323 34966 ft 419 kts 237°
2026-04-20 20:09 42.34788 7.85034 34971 ft 420 kts 237°
2026-04-20 20:10 42.31250 7.78747 34971 ft 420 kts 237°
2026-04-20 20:10 42.27721 7.72518 34971 ft 420 kts 237°
2026-04-20 20:11 42.24164 7.66243 34971 ft 420 kts 237°
2026-04-20 20:11 42.20614 7.59979 34971 ft 420 kts 237°
2026-04-20 20:12 42.17060 7.53720 34971 ft 420 kts 237°
2026-04-20 20:12 42.13498 7.47464 34971 ft 420 kts 237°
2026-04-20 20:13 42.08153 7.38111 34971 ft 420 kts 237°
2026-04-20 20:13 42.04581 7.31876 34971 ft 420 kts 237°
2026-04-20 20:14 42.01035 7.25687 34971 ft 420 kts 237°
2026-04-20 20:14 41.97459 7.19464 34971 ft 421 kts 236°
2026-04-20 20:15 41.93864 7.13236 34971 ft 422 kts 236°
2026-04-20 20:15 41.90261 7.07001 34973 ft 423 kts 236°
2026-04-20 20:16 41.87242 7.01772 34979 ft 423 kts 236°
2026-04-20 20:16 41.83630 6.95531 34972 ft 424 kts 236°
2026-04-20 20:17 41.80032 6.89341 34971 ft 423 kts 236°
2026-04-20 20:17 41.76402 6.83118 34971 ft 424 kts 236°
2026-04-20 20:18 41.72775 6.76898 34971 ft 424 kts 236°
2026-04-20 20:18 41.69145 6.70679 34971 ft 424 kts 236°
2026-04-20 20:19 41.65507 6.64462 34971 ft 424 kts 236°
2026-04-20 20:19 41.61858 6.58249 34970 ft 425 kts 236°
2026-04-20 20:20 41.58203 6.52037 34972 ft 425 kts 236°
2026-04-20 20:20 41.54546 6.45835 34971 ft 425 kts 236°
2026-04-20 20:21 41.50882 6.39632 34971 ft 425 kts 236°
2026-04-20 20:21 41.47220 6.33435 34970 ft 425 kts 236°
2026-04-20 20:22 41.43554 6.27247 34970 ft 425 kts 235°
2026-04-20 20:22 41.39881 6.21061 34971 ft 425 kts 236°
2026-04-20 20:23 41.36205 6.14881 34971 ft 425 kts 235°
2026-04-20 20:23 41.32525 6.08706 34977 ft 426 kts 235°
2026-04-20 20:24 41.28840 6.02540 34981 ft 426 kts 235°
2026-04-20 20:24 41.25168 5.96422 34980 ft 426 kts 235°
2026-04-20 20:25 41.21479 5.90270 34981 ft 426 kts 235°
2026-04-20 20:25 41.17783 5.84127 34981 ft 425 kts 235°
2026-04-20 20:26 41.14089 5.77998 34981 ft 425 kts 235°
2026-04-20 20:26 41.10390 5.71873 34980 ft 425 kts 235°
2026-04-20 20:27 41.06689 5.65754 34981 ft 425 kts 235°
2026-04-20 20:27 41.02990 5.59640 34986 ft 425 kts 235°
2026-04-20 20:28 40.99316 5.53573 34986 ft 425 kts 235°
2026-04-20 20:28 40.95612 5.47476 35001 ft 425 kts 234°
2026-04-20 20:29 40.91894 5.41398 34984 ft 425 kts 234°
2026-04-20 20:29 40.88173 5.35322 34999 ft 425 kts 234°
2026-04-20 20:30 40.84456 5.29247 34985 ft 425 kts 234°
2026-04-20 20:30 40.81439 5.24307 34987 ft 425 kts 234°
2026-04-20 20:31 40.78923 5.20205 34987 ft 425 kts 234°
2026-04-20 20:31 40.75550 5.14725 34991 ft 425 kts 234°
2026-04-20 20:32 40.71816 5.08674 34986 ft 425 kts 234°
2026-04-20 20:32 40.68086 5.02631 34994 ft 425 kts 234°
2026-04-20 20:33 40.64349 4.96595 34986 ft 425 kts 234°
2026-04-20 20:33 40.60607 4.90559 34989 ft 426 kts 234°
2026-04-20 20:34 40.56862 4.84528 34993 ft 426 kts 234°
2026-04-20 20:34 40.53119 4.78501 34986 ft 425 kts 234°
2026-04-20 20:35 40.49374 4.72492 34762 ft 425 kts 234°
2026-04-20 20:35 40.47502 4.69503 34265 ft 423 kts 234°
2026-04-20 20:35 40.45634 4.66521 33700 ft 423 kts 234°
2026-04-20 20:36 40.43766 4.63533 33101 ft 423 kts 235°
2026-04-20 20:36 40.42137 4.60348 32502 ft 419 kts 242°
2026-04-20 20:36 40.40632 4.57085 31898 ft 417 kts 242°
2026-04-20 20:36 40.39138 4.53841 31293 ft 414 kts 242°
2026-04-20 20:37 40.37658 4.50618 30697 ft 411 kts 242°
2026-04-20 20:37 40.36186 4.47403 30093 ft 409 kts 242°
2026-04-20 20:37 40.34745 4.44260 29503 ft 406 kts 242°
2026-04-20 20:37 40.33293 4.41100 28901 ft 403 kts 242°
2026-04-20 20:38 40.31846 4.37962 28303 ft 401 kts 242°
2026-04-20 20:38 40.30404 4.34843 27696 ft 399 kts 242°
2026-04-20 20:38 40.28970 4.31743 27094 ft 397 kts 242°
2026-04-20 20:38 40.27547 4.28660 26496 ft 394 kts 242°
2026-04-20 20:39 40.26129 4.25594 25893 ft 392 kts 242°
2026-04-20 20:39 40.24720 4.22546 25297 ft 390 kts 242°
2026-04-20 20:39 40.23317 4.19514 24697 ft 389 kts 242°
2026-04-20 20:39 40.21915 4.16500 24092 ft 387 kts 242°
2026-04-20 20:40 40.20518 4.13500 23489 ft 385 kts 241°
2026-04-20 20:40 40.19133 4.10527 22966 ft 382 kts 241°
2026-04-20 20:40 40.17760 4.07573 22508 ft 378 kts 241°
2026-04-20 20:40 40.16401 4.04656 22032 ft 374 kts 241°
2026-04-20 20:41 40.15052 4.01766 21557 ft 371 kts 241°
2026-04-20 20:41 40.13716 3.98897 21081 ft 368 kts 241°
2026-04-20 20:41 40.12389 3.96054 20603 ft 365 kts 241°
2026-04-20 20:41 40.11087 3.93272 20131 ft 362 kts 241°
2026-04-20 20:42 40.09781 3.90480 19656 ft 359 kts 241°
2026-04-20 20:42 40.08485 3.87712 19182 ft 356 kts 241°
2026-04-20 20:42 40.07201 3.84969 18702 ft 353 kts 241°
2026-04-20 20:42 40.05922 3.82245 18231 ft 350 kts 240°
2026-04-20 20:43 40.04652 3.79540 17754 ft 348 kts 240°
2026-04-20 20:43 40.03394 3.76858 17273 ft 346 kts 240°
2026-04-20 20:43 40.02145 3.74192 16802 ft 343 kts 240°
2026-04-20 20:43 40.00901 3.71542 16326 ft 342 kts 240°
2026-04-20 20:44 39.99660 3.68908 15850 ft 340 kts 240°
2026-04-20 20:44 39.98422 3.66283 15372 ft 339 kts 240°
2026-04-20 20:44 39.97190 3.63671 14897 ft 338 kts 240°
2026-04-20 20:44 39.95959 3.61066 14420 ft 336 kts 240°
2026-04-20 20:45 39.94732 3.58471 13947 ft 335 kts 240°
2026-04-20 20:45 39.93508 3.55890 13468 ft 334 kts 240°
2026-04-20 20:45 39.92288 3.53321 12991 ft 332 kts 239°
2026-04-20 20:45 39.91076 3.50771 12514 ft 330 kts 239°
2026-04-20 20:46 39.89872 3.48233 12030 ft 328 kts 239°
2026-04-20 20:46 39.88692 3.45743 11569 ft 326 kts 239°
2026-04-20 20:46 39.87504 3.43236 11092 ft 324 kts 239°
2026-04-20 20:46 39.86324 3.40747 10614 ft 322 kts 239°
2026-04-20 20:47 39.85146 3.38272 10135 ft 320 kts 239°
2026-04-20 20:47 39.83976 3.35812 9663 ft 319 kts 239°
2026-04-20 20:47 39.82812 3.33372 9187 ft 317 kts 239°
2026-04-20 20:47 39.81653 3.30941 8710 ft 315 kts 238°
2026-04-20 20:48 39.80500 3.28528 8233 ft 313 kts 238°
2026-04-20 20:48 39.79353 3.26131 7814 ft 309 kts 238°
2026-04-20 20:48 39.78229 3.23781 7486 ft 302 kts 238°
2026-04-20 20:48 39.77130 3.21485 7165 ft 296 kts 238°
2026-04-20 20:49 39.76054 3.19234 6830 ft 291 kts 238°
2026-04-20 20:49 39.74924 3.17087 6480 ft 285 kts 232°
2026-04-20 20:49 39.73771 3.15014 6129 ft 281 kts 237°
2026-04-20 20:49 39.72751 3.12873 5778 ft 276 kts 239°
2026-04-20 20:50 39.71775 3.10743 5421 ft 272 kts 239°
2026-04-20 20:50 39.70805 3.08658 5075 ft 267 kts 238°
2026-04-20 20:50 39.69847 3.06611 4724 ft 263 kts 238°
2026-04-20 20:50 39.68899 3.04586 4319 ft 261 kts 238°
2026-04-20 20:51 39.67957 3.02575 3897 ft 260 kts 238°
2026-04-20 20:51 39.67019 3.00572 3470 ft 259 kts 238°
2026-04-20 20:51 39.66086 2.98580 3081 ft 257 kts 238°
2026-04-20 20:51 39.65181 2.96650 2995 ft 242 kts 238°
2026-04-20 20:52 39.64338 2.94855 3000 ft 224 kts 238°
2026-04-20 20:52 39.63554 2.93183 2937 ft 212 kts 238°
2026-04-20 20:52 39.62802 2.91585 2737 ft 203 kts 238°
2026-04-20 20:52 39.62076 2.90040 2460 ft 198 kts 238°
2026-04-20 20:53 39.61370 2.88539 2202 ft 192 kts 238°
2026-04-20 20:53 39.60682 2.87078 1953 ft 187 kts 238°
2026-04-20 20:53 39.60022 2.85674 1710 ft 177 kts 238°
2026-04-20 20:53 39.59407 2.84368 1480 ft 163 kts 238°
2026-04-20 20:54 39.58835 2.83154 1274 ft 153 kts 239°
2026-04-20 20:54 39.58293 2.82006 1080 ft 150 kts 239°
2026-04-20 20:54 39.57762 2.80874 858 ft 144 kts 239°
2026-04-20 20:54 39.57241 2.79767 649 ft 146 kts 239°
2026-04-20 20:55 39.56712 2.78617 481 ft 150 kts 240°
2026-04-20 20:55 39.56170 2.77489 288 ft 146 kts 239°
2026-04-20 20:55 39.55645 2.76370 120 ft 144 kts 238°
2026-04-20 20:55 39.55142 2.75322 38 ft 121 kts 238°
2026-04-20 20:56 39.54801 2.74601 38 ft 65 kts 239°
2026-04-20 20:56 39.54610 2.74193 38 ft 37 kts 239°
2026-04-20 20:56 39.54548 2.73922 36 ft 30 kts 267°
2026-04-20 20:56 39.54543 2.73761 38 ft 3 kts 268°
2026-04-20 20:57 39.54543 2.73721 38 ft 11 kts 270°
2026-04-20 20:57 39.54551 2.73645 38 ft 4 kts 305°
2026-04-20 20:57 39.54562 2.73639 38 ft 1 kts 342°
2026-04-20 20:57 39.54589 2.73669 38 ft 11 kts 57°
2026-04-20 20:58 39.54621 2.73753 38 ft 10 kts 66°
2026-04-20 20:58 39.54649 2.73826 38 ft 8 kts 62°
2026-04-20 20:58 39.54675 2.73889 38 ft 7 kts 62°
2026-04-20 20:58 39.54703 2.73947 38 ft 11 kts 56°
2026-04-20 20:59 39.54747 2.74036 38 ft 11 kts 58°
2026-04-20 20:59 39.54790 2.74112 38 ft 10 kts 36°
2026-04-20 20:59 39.54848 2.74107 38 ft 8 kts 332°
2026-04-20 20:59 39.54894 2.74074 38 ft 7 kts 328°
2026-04-20 21:00 39.54932 2.74043 38 ft 6 kts 328°
2026-04-20 21:00 39.54980 2.74005 38 ft 8 kts 328°
2026-04-20 21:00 39.55025 2.73969 38 ft 7 kts 328°
2026-04-20 21:00 39.55092 2.73916 38 ft 15 kts 328°
2026-04-20 21:01 39.55172 2.73848 37 ft 10 kts 311°
2026-04-20 21:01 39.55165 2.73769 38 ft 8 kts 267°
2026-04-20 21:01 39.55177 2.73703 38 ft 7 kts 267°
2026-04-20 21:01 39.55159 2.73653 38 ft 6 kts 240°
2026-04-20 21:02 39.55140 2.73612 38 ft 5 kts 238°
2026-04-20 21:02 39.55123 2.73578 38 ft 4 kts 235°
2026-04-20 21:02 39.55102 2.73569 38 ft 3 kts 181°
2026-04-20 21:02 39.55085 2.73573 38 ft 2 kts 167°
2026-04-20 21:03 39.55072 2.73577 38 ft 2 kts 165°
2026-04-20 21:03 39.55067 2.73579 38 ft 0 kts 165°